Regional Weather Roundup
Issued by NWS

Home | Current Version | Previous Version | Text Only | Print | Product List | Glossary Off
Versions: 1 2 3 4 5 6 7 8 9 10 11 12 13 14 15 16 17 18 19 20 21 22 23 24 25 26 27 28 29 30 31 32 33 34 35 36 37 38 39 40 41 42 43 44 45 46 47 48 49 50

000
ASUS43 KMKX 290100
RWRWI

WISCONSIN REGIONAL WEATHER ROUNDUP
NATIONAL WEATHER SERVICE MILWAUKEE/SULLIVAN WI
800 PM CDT THU APR 28 2016

NOTE: "FAIR" INDICATES FEW OR NO CLOUDS BELOW 12,000 FEET WITH NO
SIGNIFICANT WEATHER AND/OR OBSTRUCTIONS TO VISIBILITY.

WIZ001-002-006>008-014>016-023>028-290200-
NORTHWEST WISCONSIN

CITY           SKY/WX    TMP DP  RH WIND       PRES   REMARKS
SUPERIOR ARPT  CLOUDY    38  31  78 NE9       30.13S WCI  31
ASHLAND        CLEAR     37  28  70 N8        30.13S WCI  31
HAYWARD        PTCLDY    42  25  50 NE13      30.08R
SIREN          CLOUDY    46  25  43 E5        30.08R
CUMBERLAND     CLOUDY    43  36  75 CALM      30.07R
RICE LAKE      CLOUDY    44  35  71 S5        30.09R
CHETEK         CLOUDY    42  36  78 S5        30.08R
LADYSMITH      CLOUDY    47  33  57 S6        30.07R
EAU CLAIRE     NOT AVBL
MENOMONIE      RAIN      40  40  99 NE7       30.08S
NEW RICHMOND   LGT RAIN  40  38  91 E6        30.09R
OSCEOLA        LGT RAIN  41  41 100 W3        30.11S
$$

WIZ003>005-009-010-017-018-290200-
NORTH CENTRAL WISCONSIN

CITY           SKY/WX    TMP DP  RH WIND       PRES   REMARKS
MANITOWISH WTR MOCLDY    47  29  49 N7        30.03R
ARBOR VITAE    PTCLDY    55  23  29 CALM      30.01S
WOODRUFF       PTCLDY    55  23  29 CALM      30.01S
RHINELANDER    CLOUDY    48  21  34 SE7       30.04R
EAGLE RIVER    CLOUDY    51  21  31 E3        30.01S
LAND O LAKES   CLOUDY    49  26  40 NE8       30.04R
PHILLIPS       CLOUDY    48  31  52 N7        30.02R
TOMAHAWK       CLOUDY    45  30  57 CALM      30.04R
MEDFORD        CLOUDY    41  34  76 SE9       30.04R
MERRILL        CLOUDY   N/A N/A N/A SE8       30.05S
$$

WIZ029-030-035-036-043>047-290200-
CENTRAL WISCONSIN

CITY           SKY/WX    TMP DP  RH WIND       PRES   REMARKS
WAUSAU         LGT RAIN  40  36  86 E7        30.05R
MOSINEE        CLOUDY    39  36  87 NE12      30.07R WCI  32
MARSHFIELD     LGT RAIN  41  35  79 E7        30.05R
STEVENS POINT  CLOUDY    39  32  76 E7        30.06R WCI  34
WAUPACA        CLOUDY    44  32  62 NE6       30.05S
WAUTOMA        CLOUDY    42  34  73 E10       30.05R
WISC RAPIDS    CLOUDY    41  33  73 NE8       30.07R
CAMP DOUGLAS   NOT AVBL
$$

WIZ011>013-019>022-031-037>040-048>050-290200-
NORTHEAST WISCONSIN

CITY           SKY/WX    TMP DP  RH WIND       PRES   REMARKS
ANTIGO         CLOUDY    43  26  52 NE8G22    30.06R
SHAWANO        DRIZZLE   42  34  72 NE5       30.08R
OCONTO         CLOUDY    42  33  69 N3        30.06S
STURGEON BAY   CLOUDY    41  28  60 NE6       30.08S
GREEN BAY      CLOUDY    43  35  73 N8        30.06R
MANITOWOC      NOT AVBL
APPLETON       CLOUDY    43  28  56 NE8       30.03S
CLINTONVILLE   LGT RAIN  39  34  81 N5        30.07R
OSHKOSH        CLOUDY    42  36  79 E5        30.04R
$$

WIZ032>034-041-042-053>061-290200-
SOUTHWEST WISCONSIN

CITY           SKY/WX    TMP DP  RH WIND       PRES   REMARKS
LA CROSSE      CLOUDY    42  38  85 NE12      30.04S
SPARTA         DRIZZLE   39  39  98 NE5       30.05S
VIROQUA        CLOUDY    39  39  99 NE6       30.02R WCI  35
BOSCOBEL       LGT RAIN  43  39  86 E3        30.03R
PRAIRIE DU CHI DRIZZLE   42  39  88 CALM      30.02R
PLATTEVILLE    CLOUDY    42  41  96 NE8       29.99R
$$

WIZ056-057-062-063-064-067-068-290200-
SOUTH CENTRAL WISCONSIN

CITY           SKY/WX    TMP DP  RH WIND       PRES   REMARKS
REEDSBURG      CLOUDY    39  39  99 E5        30.02R FOG
BARABOO/DELLS  CLOUDY    39  37  94 E6        30.03R FOG     WCI  35
LONE ROCK      CLOUDY    41  37  87 E8        30.03R FOG
MINERAL POINT  LGT RAIN  41  41 100 NE7       29.99R
MADISON        CLOUDY    40  36  86 E7        30.02R
MIDDLETON      CLOUDY    41  38  88 E7        30.02R
WATERTOWN      CLOUDY    40  37  91 E9        30.01R WCI  33
MONROE         CLOUDY    41  39  93 NE10      29.98R FOG
JANESVILLE     NOT AVBL
$$

WIZ051-052-058>065-066-070>072-290200-
SOUTHEAST WISCONSIN

CITY           SKY/WX    TMP DP  RH WIND       PRES   REMARKS
MILWAUKEE      CLOUDY    40  37  89 NE8       30.01R WCI  34
WAUKESHA       CLOUDY    37  36  93 E9        30.01R WCI  31
MILWAUKEE/TIMM CLOUDY    39  36  87 NE9       30.02R WCI  33
RACINE         CLOUDY    41  37  86 NE7       30.03R
BURLINGTON     CLOUDY    38  37  96 NE8       30.00R WCI  33
KENOSHA        CLOUDY    41  38  89 NE9       30.00R
FOND DU LAC    LGT RAIN  40  38  93 E6        30.03S
SHEBOYGAN      CLOUDY    41  35  79 NE6       30.03S
WEST BEND      CLOUDY    39  36  87 NE9       30.02S WCI  33
JUNEAU         CLOUDY    39  35  86 NE8       30.02S WCI  33
$$

LSZ147-162-290200-
LAKE SUPERIOR

STATION/POSITION TIME  TEMP    WIND        PRES    WAVE
                       AIR SEA DIR/SP/G            HT/PER
                 (UTC) (F)     (DEG/KT/KT) (MB)    (FT/S)
W MID LAKE BUOY  2350   38 36   70/ 14/ 16 1020.7F   3/ 5
DEVILS ISLAND    0000   38      80/  9/ 10 1021.2R
SAXON HARBOR     0000   40      30/  7/  9 1019.3S
$$

LMZ867-665-643>646-290200-
LAKE MICHIGAN

STATION/POSITION TIME  TEMP    WIND        PRES    WAVE
                       AIR SEA DIR/SP/G            HT/PER
                 (UTC) (F)     (DEG/KT/KT) (MB)    (FT/S)
CHAMBERS ISLAND  0000   42      30/  4/  6 1017.9S
N MID LAKE BUOY  2350   40 38   60/  8/ 10 1018.0F   1/ 4
NORTHPORT PIER   0000   40      80/  7/  8 1017.9S
ALGOMA LAKESHORE 0000           70/ 11/ 13   N/A
KEWAUNEE LAKESHO 0000   41                 1016.8R
SHEBOYGAN LAKESH 0000   41      70/ 10/ 12 1017.4F
PORT WASHINGTON  0000   42      50/ 10/ 15 1017.3
S MID LAKE BUOY  2350   40 40   70/ 12/ 14 1015.1R   2/ 4
KENOSHA   LAKESH 0000   41      40/ 16/ 19 1014.9F
$$

TC  - TEMPERATURE IN CELSIUS
VSB - VISIBILITY IN STATUTE MILES
WCI - WIND CHILL INDEX
HX  - HEAT INDEX





USA.gov is the U.S. government's official web portal to all federal, state and local government web resources and services.